Location: Eyeline Observatory
(43.2182°N, 78.8632°W)
Time: 22:25:56
(UTC-05:00)

Vanguard 2 - Pass Details

Date: 26 January 2018
Orbit: 553 x 2939 km, 32.9° (Epoch: 17 February)

Event Time Altitude Azimuth Distance (km) Brightness Sun altitude
Rises 05:18:51 0° 262° (W) 4,064 - -25.1°
Reaches altitude 10° 05:21:20 10° 255° (WSW) 3,362 - -24.7°
Exits shadow 05:25:07 29° 237° (WSW) 2,563 9.7 -24.0°
Maximum altitude 05:29:40 45° 187° (S) 2,379 9.9 -23.1°
Drops below altitude 10° 05:42:48 10° 122° (ESE) 5,217 12.7 -20.8°
Sets 05:47:45 0° 117° (ESE) 6,489 13.5 -19.9°
